Regional Weather Roundup
Issued by NWS

Home | Current Version | Previous Version | Graphics & Text | Print | Product List | Glossary On
Versions: 1 2 3 4 5 6 7 8 9 10 11 12 13 14 15 16 17 18 19 20 21 22 23 24 25 26 27
000
ASUS45 KCYS 181010
RWRWY

WYOMING REGIONAL WEATHER ROUNDUP
NATIONAL WEATHER SERVICE CHEYENNE WY
300 AM MST SAT NOV 18 2017

NOTE:  "FAIR" INDICATES FEW OR NO CLOUDS BELOW 12,000 FEET
WITH NO SIGNIFICANT WEATHER AND/OR OBSTRUCTIONS TO VISIBILITY.

WYZ001-181100-
YELLOWSTONE NATIONAL PARK

CITY           SKY/WX    TMP DP  RH WIND       PRES   REMARKS
LK YELLOWSTONE   N/A      1  -2  87 NW3       30.21R
W YELLOWSTONE  NOT AVBL

$$
WYZ002>013-054>058-071-098>099-181100-
NORTHERN WYOMING

CITY           SKY/WX    TMP DP  RH WIND       PRES   REMARKS
JACKSON        FAIR       9   5  84 N8        30.26R WCI  -3
CODY           FAIR      31  12  45 W22G35    30.11R WCI  18
GREYBULL       FAIR      24  18  77 SE5       30.14R WCI  18
WORLAND        FAIR      21  19  92 S6        30.14R WCI  13
SHERIDAN       FAIR      28  17  63 W14       30.08R WCI  17
BUFFALO        FAIR      31   7  36 NW22G29   30.06R WCI  18
GILLETTE       FAIR      28  17  63 W12       30.06R WCI  18
HULETT         FAIR      32  21  64 MISG      30.04R
NEWCASTLE      FAIR      28  19  69 NW9       30.04R WCI  20

$$
WYZ014>020-022>026-101>103-181100-
CENTRAL WYOMING

CITY           SKY/WX    TMP DP  RH WIND       PRES   REMARKS
BIG PINEY      FAIR       6   1  80 CALM      30.24R
PINEDALE       FAIR      10   5  79 NW6       30.24R WCI   1
DUBOIS         FAIR      19   5  53 NW24      30.15R WCI   2
LANDER         FAIR      24   2  38 SW3       30.13R
RIVERTON       FAIR      25   9  50 NW15      30.13R WCI  13
CASPER         FAIR      19  14  81 SW8       30.12R WCI   9
DOUGLAS        FAIR      24  19  81 NW15      30.10R WCI  11

$$
WYZ021-027>030-104>119-181100-
SOUTHERN WYOMING

CITY           SKY/WX    TMP DP  RH WIND       PRES   REMARKS
EVANSTON       FAIR      14  11  87 SW10      30.29R WCI   1
FORT BRIDGER   FAIR      16  16 100 SW15      30.31R WCI   1
ROCK SPRINGS   FAIR      18  13  80 W24       30.23S WCI   0
DIXON          FAIR       6   3  87 CALM      30.28R
RAWLINS        FAIR      17  12  80 W17       30.17R WCI   1
SARATOGA       FAIR      18  12  79 W20       30.17R WCI   1
LARAMIE        FAIR      19  13  77 W18       30.07R WCI   4
CHEYENNE       MIX PCPN  26  18  71 NW17      30.07R WCI  13
TORRINGTON     FAIR      32  22  66 NW16G26   30.08R WCI  21
PINE BLUFFS    FAIR      28  21  74 NW20G28   30.07R WCI  15

$$




USA.gov is the U.S. government's official web portal to all federal, state and local government web resources and services.